Location: Newark
(32.8014°N, 52.8711°E)
Time: 13:40:56
(UTC+00:00)

Envisat - Pass Details

Date: 29 January 2020
Orbit: 764 x 766 km, 98.1° (Epoch: 24 February)

Event Time Altitude Azimuth Distance (km) Brightness Sun altitude
Rises 02:06:27 0° 30° (NNE) 3,233 6.5 -16.9°
Reaches altitude 10° 02:09:17 10° 46° (NE) 2,303 5.9 -16.3°
Maximum altitude 02:13:07 21° 95° (E) 1,648 5.7 -15.5°
Drops below altitude 10° 02:16:55 10° 144° (SE) 2,292 6.2 -14.7°
Sets 02:19:44 0° 160° (SSE) 3,213 6.7 -14.1°
